BEIDOU-3 IGSO-2

Last updated on Sat Oct 18 2025 00:02:55 GMT+0000 (Coordinated Universal Time)

1 44337U 19035A 25290.59144221 -.00000111 00000+0 00000+0 0 9997 2 44337 55.2146 160.9964 0037131 202.8642 353.6553 1.00288906 23234
UTC large
Height (km)
Speed (km/s)
/
Latitude / Longitude
Inclination (degrees)
Orbital Period (minutes)
Azimuth
Elevation
Range (km)
Doppler Factor

Next 0 passes for location: London (51.5072 / 0.1276)

Sorry there are no passes over London.